Content
SEND FEEDBACK

Daily
Averages
Monthly
Summary
United States of America

WILMINGTON, NORTH CAROLINA


Home > North America > United States > North Carolina
Elevation: 21 meters     Latitude: 34 16N     Longitude: 077 54W

WEATHER
 
SELECT A DAY
Number of Records: 214,086;   Date Range: 1/1/95 - 12/18/14
 
SHARE

PRINT THIS DATA

[ ← Previous Day ]
WEATHER ALMANAC - 12 MARCH, 2013
[ Next Day → ]
[ °F ]   °C
Weather ElementAverageHighLow
Temperature17.4 °C21.1 °C (3:53 pm)13.9 °C (11:53 pm)
Dewpoint15.4 °C17 °C (8:58 am)12.8 °C (11:53 pm)
Humidity88.4 %100 % (8:58 am)71 % (3:53 pm)
Barometer1011.5 hPa1014.6 hPa (1:53 am)1008.5 hPa (4:53 pm)
Wind Speed13 km/h25.9 km/h (4:53 pm)
Wind Gust37 km/h (4:53 pm)
Weather ElementAverage
Visibility12.6 km
Wind DirectionSSW (201.6 °)

Weather ElementTotal
Precipitation30.23 mm
Heating Degree Days0.8 (Base 18.3)
Growing Degree Days7.5 (Base 10)
Averaged from 31 records on 12 March, 2013
WEATHER CONDITIONS BREAKOUT
WIND DIRECTION BREAKOUT
WEATHER BY HOUR - 12 MARCH, 2013
[ °F ]   °C
Local TimeTemperatureDewpointHumidityBarometerVisibilityWind DirectionWind SpeedGust SpeedPrecipitationEventsConditions
1:53 AM17.2 °C13.9 °C81 %1014.6 hPa14.5 kmSouth (170°)13 km/h0 mmRainLight Rain
2:53 AM17.2 °C13.9 °C81 %1013.5 hPa16.1 kmSouth (170°)14.8 km/h0 mmOvercast
3:53 AM17.8 °C15 °C84 %1012.9 hPa16.1 kmSSE (150°)13 km/h0 mmMostly Cloudy
4:53 AM17.2 °C14.4 °C84 %1012.2 hPa14.5 kmSSE (150°)9.3 km/h0 mmRainLight Rain
5:53 AM16.7 °C14.4 °C86 %1012.2 hPa16.1 kmSSE (150°)7.4 km/h0 mmMostly Cloudy
6:53 AM16.1 °C15 °C93 %1012.2 hPa16.1 kmSSE (150°)7.4 km/h0.51 mmRainLight Rain
7:53 AM17.2 °C15.6 °C90 %1012.2 hPa12.9 kmSouth (180°)20.4 km/h29.6 km/h0.51 mmRainLight Rain
8:53 AM17.8 °C16.7 °C93 %1012.2 hPa6.4 kmSSW (200°)9.3 km/h2.03 mmRainRain
8:58 AM17 °C17 °C100 %1012.2 hPa4 kmSSW (210°)11.1 km/h0.76 mmRainHeavy Rain
9:02 AM17 °C17 °C100 %1012.2 hPa1.9 kmSW (230°)7.4 km/h1.02 mmRainRain
9:13 AM17 °C17 °C100 %1012.2 hPa2.4 kmSouth (170°)9.3 km/h3.81 mmRainRain
9:17 AM17 °C17 °C100 %1012.2 hPa3.2 kmSouth (170°)9.3 km/h4.06 mmRainRain
9:34 AM18 °C17 °C94 %1012.2 hPa4.8 kmSouth (180°)18.5 km/h6.1 mmRainRain
9:53 AM17.8 °C16.7 °C93 %1012.2 hPa6.4 kmSouth (180°)14.8 km/h7.37 mmRainRain
10:47 AM18 °C16 °C88 %1012.2 hPa16.1 kmSouth (190°)18.5 km/h2.03 mmRainLight Rain
10:53 AM17.8 °C16.1 °C90 %1011.9 hPa16.1 kmSouth (190°)16.7 km/h35.2 km/h2.03 mmOvercast
11:51 AM18 °C16 °C88 %1012.2 hPa14.5 kmSSW (200°)16.7 km/h0 mmRainLight Rain
11:53 AM17.8 °C16.1 °C90 %1012.2 hPa14.5 kmSSW (200°)14.8 km/h0 mmRainLight Rain
12:53 PM18.3 °C16.1 °C87 %1011.9 hPa14.5 kmSSW (200°)16.7 km/h0 mmRainLight Rain
1:53 PM18.9 °C16.1 °C84 %1010.8 hPa16.1 kmSSW (210°)14.8 km/h0 mmMostly Cloudy
2:53 PM19.4 °C16.1 °C81 %1009.8 hPa16.1 kmSW (220°)18.5 km/hOvercast
3:53 PM21.1 °C15.6 °C71 %1008.8 hPa16.1 kmSW (230°)14.8 km/hOvercast
4:53 PM20 °C15 °C73 %1008.5 hPa16.1 kmSW (220°)25.9 km/h37 km/hMostly Cloudy
5:53 PM20.6 °C15.6 °C73 %1008.5 hPa16.1 kmSW (220°)16.7 km/hClear
6:53 PM19.4 °C15.6 °C79 %1009.1 hPa16.1 kmSW (220°)9.3 km/hClear
7:53 PM16.7 °C15 °C90 %1009.8 hPa16.1 kmSSW (200°)7.4 km/hClear
8:53 PM15.6 °C14.4 °C93 %1010.2 hPa16.1 kmSSW (210°)9.3 km/hClear
9:53 PM15 °C13.9 °C93 %1010.8 hPa12.9 kmSW (230°)13 km/hClear
10:07 PM15 °C14 °C94 %1010.8 hPa9.7 kmWSW (250°)11.1 km/hPartly Cloudy
10:53 PM14.4 °C13.3 °C93 %1011.5 hPa12.9 kmWest (280°)5.6 km/hClear
11:53 PM13.9 °C12.8 °C93 %1012.2 hPa16.1 kmNW (320°)9.3 km/hClear
Hourly data recorded from KILM, located 0 kilometers away from Wilmington, North Carolina







STORIES FROM OUR PARTNERS